SCP
1 1 1 1 1 0 0 0 0 0 0 0 0 0 0 0 0 0 0 0 0 0
3 2 2 2 1 2 1 1 0 0 0 0 0 0 0 0 0 0 0 0 0 0
2 3 4 3 2 2 3 3 1 1 0 0 0 1 1 1 0 0 0 0 0 0
3 3 4 3 2 2 4 4 3 2 1 1 0 1 1 0 0 0 0 0 0 0
4 3 4 4 3 3 4 5 4 3 2 2 2 1 1 0 0 0 0 0 0 0
4 4 4 3 3 3 4 5 6 4 3 3 3 2 1 0 0 0 0 0 0 0
0 2 4 4 4 3 3 3 3 4 4 3 3 2 1 0 0 0 0 0 0 0
0 0 2 3 3 2 1 1 1 2 2 1 0 0 0 0 0 0 0 0 0 0
0 0 1 1 1 0 0 0 1 1 1 0 0 0 0 0 0 0 0 0 0 0
0 0 0 0 1 1 0 0 0 0 0 0 0 0 0 0 0 -0 -0 -0 0 0
0 0 1 1 0 0 0 0 1 0 0 0 0 0 0 0 0 0 -0 0 0 0
0 0 0 0 1 0 1 0 0 0 0 0 0 0 0 0 0 0 0 0 0 0
0 0 1 1 1 1 1 0 0 0 0 0 0 0 0 0 0 0 0 0 0 0
0 0 1 1 1 1 1 0 0 0 0 0 0 0 0 0 0 0 0 0 0 0
Wind_Speed_500mb
103 96 92 86 84 77 76 73 71 72 71 69 68 64 74 82 72 68 64 55 48 37
103 100 99 93 88 83 77 77 76 73 75 75 71 69 67 81 85 73 66 53 47 37
106 106 101 98 95 87 81 79 77 75 77 81 79 76 71 77 86 76 63 53 45 41
71 87 89 91 95 88 85 82 80 77 73 82 83 90 83 86 81 74 61 45 44 43
80 81 83 90 92 94 91 86 80 75 75 76 93 86 96 91 79 75 59 47 49 43
68 76 83 83 81 91 94 88 80 74 70 76 89 95 95 97 78 71 63 48 49 32
49 71 77 78 78 81 87 80 74 75 72 75 78 80 81 80 59 61 57 44 22 22
14 23 63 75 73 71 68 72 70 67 69 69 68 74 71 52 63 45 48 30 16 16
17 14 19 56 67 64 63 66 67 66 62 64 55 64 54 34 40 49 40 46 59 52
20 27 28 32 56 64 61 56 57 60 57 65 73 59 65 81 68 71 86 80 57 63
28 30 23 20 43 57 60 58 56 51 49 55 75 82 83 63 58 76 92 81 71 71
21 22 14 10 20 48 56 57 60 64 76 77 78 75 68 68 78 72 84 87 80 57
25 26 28 31 30 37 51 53 57 60 79 84 82 72 76 87 67 69 79 65 61 51
30 26 34 42 50 53 46 54 58 62 76 82 70 80 85 79 77 78 80 73 65 57
Wind_Direction_500mb
220 223 225 230 233 236 235 237 235 234 233 232 233 238 231 231 235 235 242 251 245 253
227 225 224 231 237 241 243 243 243 244 240 237 236 235 235 233 233 235 238 242 240 248
228 231 232 236 233 236 245 247 247 246 247 242 239 237 233 235 235 234 235 234 238 243
230 233 234 234 232 243 248 249 250 250 250 249 243 238 232 235 234 233 225 229 236 240
233 233 237 239 239 240 245 247 250 251 251 254 247 243 231 233 231 222 218 219 225 229
240 241 241 242 247 245 246 248 247 250 254 255 250 246 236 230 226 221 224 209 213 222
233 232 238 239 242 249 248 246 250 254 255 251 251 240 223 216 208 216 214 199 194 230
43 246 231 230 236 240 242 248 250 252 250 245 238 226 170 172 172 209 213 185 195 241
340 344 271 226 230 227 232 244 249 248 249 239 216 173 171 219 186 202 207 204 199 222
310 291 320 236 218 220 225 234 244 252 249 228 200 186 167 179 187 226 209 209 219 214
261 275 300 341 221 222 226 229 229 227 222 212 205 197 195 211 212 212 220 212 207 204
253 219 241 316 264 230 230 225 224 216 207 190 184 197 216 214 202 216 217 214 211 211
239 232 210 234 273 256 233 229 224 226 215 215 219 217 202 197 208 205 212 194 193 211
222 237 220 222 238 247 243 233 226 228 215 214 206 196 199 202 204 211 192 187 193 201
Wind_Speed_850mb
103 96 92 86 84 77 76 73 71 72 71 69 68 64 74 82 72 68 64 55 48 37
103 100 99 93 88 83 77 77 76 73 75 75 71 69 67 81 85 73 66 53 47 37
106 106 101 98 95 87 81 79 77 75 77 81 79 76 71 77 86 76 63 53 45 41
71 87 89 91 95 88 85 82 80 77 73 82 83 90 83 86 81 74 61 45 44 43
80 81 83 90 92 94 91 86 80 75 75 76 93 86 96 91 79 75 59 47 49 43
68 76 83 83 81 91 94 88 80 74 70 76 89 95 95 97 78 71 63 48 49 32
49 71 77 78 78 81 87 80 74 75 72 75 78 80 81 80 59 61 57 44 22 22
14 23 63 75 73 71 68 72 70 67 69 69 68 74 71 52 63 45 48 30 16 16
17 14 19 56 67 64 63 66 67 66 62 64 55 64 54 34 40 49 40 46 59 52
20 27 28 32 56 64 61 56 57 60 57 65 73 59 65 81 68 71 86 80 57 63
28 30 23 20 43 57 60 58 56 51 49 55 75 82 83 63 58 76 92 81 71 71
21 22 14 10 20 48 56 57 60 64 76 77 78 75 68 68 78 72 84 87 80 57
25 26 28 31 30 37 51 53 57 60 79 84 82 72 76 87 67 69 79 65 61 51
30 26 34 42 50 53 46 54 58 62 76 82 70 80 85 79 77 78 80 73 65 57
Wind_Direction_850mb
220 223 225 230 233 236 235 237 235 234 233 232 233 238 231 231 235 235 242 251 245 253
227 225 224 231 237 241 243 243 243 244 240 237 236 235 235 233 233 235 238 242 240 248
228 231 232 236 233 236 245 247 247 246 247 242 239 237 233 235 235 234 235 234 238 243
230 233 234 234 232 243 248 249 250 250 250 249 243 238 232 235 234 233 225 229 236 240
233 233 237 239 239 240 245 247 250 251 251 254 247 243 231 233 231 222 218 219 225 229
240 241 241 242 247 245 246 248 247 250 254 255 250 246 236 230 226 221 224 209 213 222
233 232 238 239 242 249 248 246 250 254 255 251 251 240 223 216 208 216 214 199 194 230
43 246 231 230 236 240 242 248 250 252 250 245 238 226 170 172 172 209 213 185 195 241
340 344 271 226 230 227 232 244 249 248 249 239 216 173 171 219 186 202 207 204 199 222
310 291 320 236 218 220 225 234 244 252 249 228 200 186 167 179 187 226 209 209 219 214
261 275 300 341 221 222 226 229 229 227 222 212 205 197 195 211 212 212 220 212 207 204
253 219 241 316 264 230 230 225 224 216 207 190 184 197 216 214 202 216 217 214 211 211
239 232 210 234 273 256 233 229 224 226 215 215 219 217 202 197 208 205 212 194 193 211
222 237 220 222 238 247 243 233 226 228 215 214 206 196 199 202 204 211 192 187 193 201